Probability
0 0 0 0 0 0 0 0 0 0 0 0 0 0 1 3 4 2 2 6 10 12 12 12 10 8 8 7 7 7 5 4 5 6 5 5 4 2 0 0 0 1 1 1
0 0 0 0 0 0 0 0 0 0 0 0 0 0 1 2 3 3 3 4 7 10 11 10 7 7 9 9 9 7 6 6 8 8 7 7 6 3 2 1 2 3 3 2
0 0 0 0 0 0 0 0 0 0 0 0 0 0 0 1 2 3 3 3 4 7 9 8 6 8 11 12 11 10 9 10 12 12 10 9 8 6 4 4 4 4 3 2
0 0 0 0 0 0 0 0 0 0 0 0 0 0 0 0 1 2 2 3 3 5 8 9 10 11 14 15 15 13 13 14 16 15 13 11 9 7 6 5 4 3 1 1
0 0 0 0 0 0 0 0 0 0 0 0 0 0 0 0 0 1 1 1 3 5 8 12 13 14 17 18 17 16 16 18 19 18 15 12 10 8 6 5 3 2 1 1
0 0 0 0 0 0 0 0 0 0 0 0 0 0 0 0 0 1 1 1 3 5 7 10 12 14 18 20 19 18 19 20 20 18 16 14 11 9 7 5 3 3 2 2
0 0 0 0 0 0 0 0 0 0 0 0 0 0 0 0 1 2 2 2 3 5 6 8 10 13 17 17 17 19 20 20 19 17 15 13 12 9 8 7 5 4 3 3
0 0 0 0 0 0 0 0 0 0 0 0 0 0 0 0 1 4 5 3 4 5 6 7 9 12 16 16 15 17 19 20 19 15 13 12 11 9 8 8 8 6 4 4
0 0 0 0 0 0 0 0 0 0 0 0 0 0 0 0 1 4 6 4 3 5 6 7 9 11 13 16 16 16 17 17 17 15 13 11 11 10 8 8 8 8 5 4
0 0 0 0 0 0 0 0 0 0 0 0 0 0 0 0 1 3 4 2 2 4 6 7 8 10 11 14 15 14 14 14 14 14 13 12 11 10 8 7 7 7 5 3
0 0 0 0 0 0 0 0 0 0 0 0 0 0 0 0 1 2 2 2 3 4 6 8 10 11 11 12 12 11 12 12 13 12 12 11 10 8 7 5 4 5 5 4
0 0 0 0 0 0 0 0 0 0 0 0 0 0 0 0 1 3 4 5 5 5 8 10 12 12 11 11 11 11 11 11 11 11 10 9 7 7 6 3 2 3 4 5
0 0 0 0 0 0 0 0 0 0 0 0 0 0 0 0 1 3 5 6 6 6 8 11 13 12 11 11 11 11 11 11 11 11 9 7 6 6 6 4 2 3 4 5
0 0 0 0 0 0 0 0 0 0 0 0 0 0 1 1 1 2 5 6 6 6 7 9 12 11 9 9 10 11 11 10 12 12 10 6 5 7 7 6 5 5 5 5
0 0 0 0 0 0 0 0 0 0 0 0 0 0 1 2 2 2 4 5 5 5 5 7 9 8 6 6 7 9 8 8 10 12 11 7 6 7 8 8 7 6 6 5
0 0 0 0 0 1 2 1 1 1 0 0 0 1 2 3 3 3 4 5 5 4 4 5 7 7 6 5 5 7 7 6 6 9 9 7 6 6 8 9 8 7 6 4
0 0 0 0 0 1 2 2 2 1 0 0 1 2 3 3 3 2 3 5 5 4 3 4 6 8 7 6 5 7 7 5 5 6 7 6 6 6 7 7 7 6 5 4
0 0 0 0 0 0 1 1 1 1 0 0 1 2 3 3 2 1 2 3 4 3 3 3 4 5 6 6 6 7 7 6 6 6 7 7 7 7 7 6 5 5 4 2
0 0 0 0 0 0 0 0 1 1 0 0 0 1 2 3 3 2 1 1 1 2 3 3 3 2 3 5 7 8 8 8 7 6 7 7 7 7 7 6 5 4 4 4
0 0 0 0 0 0 0 1 1 1 1 0 0 0 1 2 2 2 2 1 0 1 2 3 3 1 2 5 8 8 9 9 8 6 6 7 7 7 6 6 4 4 5 6
0 0 0 0 0 0 0 1 0 0 0 0 0 0 1 1 1 1 2 1 0 0 1 3 3 3 3 5 8 8 8 8 7 6 5 7 7 7 6 6 5 5 6 6
0 0 0 0 0 0 0 0 0 1 1 0 1 1 1 1 0 0 0 0 0 0 1 2 3 3 4 6 7 6 6 6 4 4 4 6 7 7 6 6 6 7 7 7
0 0 0 0 0 0 0 0 1 2 1 1 2 3 2 1 0 0 0 0 0 1 2 3 3 3 5 6 6 6 5 4 2 2 3 4 6 7 6 7 7 8 9 9
0 0 0 0 0 0 0 0 1 2 1 1 2 2 2 1 0 0 0 0 0 1 3 4 5 5 6 6 6 6 5 4 3 3 2 3 5 7 7 8 9 9 9 9
0 0 0 0 0 0 0 0 1 1 0 0 1 1 1 1 0 0 0 0 1 2 4 5 6 6 6 6 5 5 6 5 3 2 2 3 5 7 8 8 8 8 8 8
0 0 0 0 0 0 0 0 0 0 0 0 0 0 0 0 0 0 0 1 2 3 4 6 6 6 6 6 4 5 5 4 2 1 2 3 4 6 8 8 7 5 6 7
Wind_Speed
2 4 3 6 7 5 4 3 3 4 2 1 2 4 4 2 2 3 3 4 4 5 4 3 4 5 5 5 5 5 5 4 4 3 3 2 2 1 1 1 2 3 3 3
4 3 6 4 3 3 3 2 3 4 1 2 1 3 3 3 4 5 5 5 5 4 2 3 3 4 6 6 5 5 5 5 5 4 3 2 2 2 1 1 1 2 3 3
6 5 3 4 3 3 3 5 4 3 2 1 0 4 3 3 1 1 3 3 4 6 6 4 4 5 5 6 6 6 5 5 4 4 3 2 2 2 1 0 0 1 2 3
4 4 3 3 4 5 5 5 4 2 1 3 0 3 5 3 3 3 3 3 4 4 5 5 5 5 6 6 6 5 6 5 5 5 4 5 3 2 2 1 1 1 1 2
5 3 4 5 5 7 5 2 3 2 2 1 1 1 7 2 4 6 5 5 5 5 6 6 6 7 6 5 5 5 5 4 4 5 5 4 3 2 1 1 1 1 0 1
4 3 4 4 2 4 3 5 4 4 4 2 4 3 7 4 6 5 4 5 5 4 5 5 5 4 4 4 4 4 5 4 4 5 4 5 4 3 2 1 1 1 0 1
3 3 2 3 2 1 4 5 3 4 2 6 2 3 8 5 4 4 5 5 4 4 5 5 5 5 5 5 5 5 5 4 4 5 4 4 4 4 4 3 3 2 1 1
2 5 4 3 6 5 4 8 7 5 5 4 1 5 6 3 2 2 2 2 3 3 4 5 6 6 6 6 6 5 5 4 4 4 4 3 3 3 3 3 3 3 2 2
4 5 3 2 2 7 5 4 5 6 2 1 4 5 6 1 1 1 1 2 2 3 4 4 4 5 5 5 5 5 5 3 3 3 3 3 3 3 3 2 2 2 2 2
6 3 3 1 3 3 4 7 5 5 4 3 4 4 4 3 3 1 2 3 2 3 3 4 4 4 4 4 4 4 4 4 3 3 3 3 2 2 2 2 2 2 2 2
4 4 3 1 3 4 3 3 4 4 4 5 3 6 4 6 5 5 4 4 3 3 4 4 3 3 3 4 4 3 3 3 3 3 2 2 2 2 2 2 2 2 2 2
3 5 2 4 3 3 4 5 6 5 4 4 3 7 4 3 3 4 4 3 3 3 3 4 4 3 3 3 3 2 2 2 2 2 2 2 2 2 2 2 2 2 2 2
4 5 2 4 3 2 1 2 3 5 4 4 4 7 3 2 1 2 3 3 3 3 4 4 4 4 3 3 3 2 2 1 1 2 2 2 2 2 3 2 2 2 2 2
5 4 6 7 6 3 2 2 3 5 4 4 6 6 4 2 1 1 3 4 3 4 4 4 3 3 3 3 2 2 1 1 1 2 2 2 2 2 2 2 2 2 2 2
4 3 3 4 3 2 2 3 4 5 7 7 6 6 6 4 4 3 3 4 4 4 4 4 3 2 3 3 2 2 2 2 1 1 1 1 2 1 1 1 1 1 1 1
3 3 1 1 1 1 1 3 3 3 3 4 3 5 4 2 2 2 3 5 5 4 4 3 3 3 2 3 2 2 1 1 1 1 0 0 0 0 1 1 1 1 1 0
1 4 2 2 2 1 3 4 4 3 3 4 6 6 1 1 2 3 4 5 5 5 5 4 4 3 3 3 3 2 2 1 1 1 1 1 1 0 0 1 1 1 1 1
5 4 3 1 1 5 6 2 2 3 1 1 2 2 2 3 2 1 2 4 4 3 4 4 3 3 2 2 2 2 2 2 2 1 1 1 0 0 0 0 1 1 1 2
4 6 4 3 3 4 4 2 1 3 2 2 2 2 1 2 3 2 1 1 3 3 3 3 3 4 4 3 3 3 3 2 2 1 0 1 1 1 1 1 2 2 1 1
4 4 4 3 3 5 5 4 2 3 3 3 2 3 2 3 1 4 2 1 1 1 2 2 2 3 3 3 4 3 2 2 1 1 1 2 1 2 2 3 2 1 1 2
2 2 3 3 3 6 4 4 1 4 6 2 3 3 4 3 4 2 0 1 1 1 2 3 3 3 2 3 4 3 2 2 2 1 1 1 2 2 2 2 2 2 1 1
4 3 3 3 3 6 3 1 3 5 2 1 1 2 3 2 1 1 2 1 2 2 2 2 3 1 1 2 3 3 2 2 1 1 1 1 2 2 1 1 1 1 1 1
3 4 4 5 5 4 2 2 3 2 1 1 2 2 3 2 1 1 1 2 2 2 2 1 2 2 1 1 3 3 2 2 2 1 1 1 2 2 1 1 1 1 1 1
1 0 1 1 3 3 3 2 2 1 1 2 2 3 3 3 3 2 2 2 1 1 1 1 2 2 0 0 1 1 2 1 2 1 1 1 1 2 1 1 1 1 1 2
2 0 0 2 4 4 3 2 1 1 1 1 1 2 3 5 3 3 2 2 1 1 1 2 2 2 1 1 1 1 1 1 1 1 0 1 1 1 1 1 1 2 2 3
2 3 3 5 5 3 4 4 2 0 0 1 2 1 1 3 4 3 2 2 2 1 1 1 1 1 1 1 1 1 1 2 2 1 1 1 1 1 1 1 2 2 3 3
Wind_Direction
100 93 193 207 195 188 168 172 243 261 241 149 233 257 268 257 206 206 204 200 202 215 208 174 170 164 157 157 161 171 163 168 160 155 162 164 185 183 179 201 202 191 181 171
58 241 222 188 178 169 168 193 256 289 298 164 235 279 271 228 222 212 207 209 207 211 185 180 171 166 167 169 171 172 170 171 176 175 169 164 157 161 165 179 180 180 175 171
186 230 176 156 161 165 207 197 212 233 331 21 136 312 299 287 272 227 208 213 210 200 193 194 185 186 172 174 179 179 176 176 180 166 138 112 85 70 79 102 157 194 179 174
221 237 173 174 197 171 240 221 190 186 103 288 133 281 286 286 297 271 238 209 211 201 189 188 186 187 185 185 176 175 169 166 162 155 154 151 155 168 192 181 180 156 159 168
230 197 176 201 212 171 211 176 151 160 160 308 333 193 282 297 275 265 247 221 212 203 190 189 190 189 185 171 165 165 153 158 153 153 159 158 162 170 151 138 143 142 181 174
238 217 195 200 186 160 144 75 64 60 80 271 239 181 272 239 232 247 243 232 215 202 192 188 186 171 159 149 152 149 149 158 157 157 161 167 171 170 157 164 178 185 179 172
300 275 233 160 115 82 106 94 42 4 5 250 222 193 249 251 240 225 228 231 215 193 185 174 167 164 158 159 165 158 155 166 165 165 171 176 175 173 180 183 188 186 178 192
219 276 231 186 174 174 177 148 160 193 219 268 256 230 253 265 260 228 210 207 185 169 173 178 178 170 166 168 165 161 166 172 164 165 171 174 169 173 188 185 177 185 194 202
187 253 280 209 160 145 150 176 166 138 162 257 269 275 295 322 349 69 144 148 179 174 163 175 169 164 165 165 164 163 162 164 160 162 160 163 169 177 182 177 170 176 181 180
165 230 286 275 72 43 138 144 107 127 155 243 276 264 258 258 250 234 193 186 180 154 141 147 156 159 160 156 147 142 150 162 158 155 164 167 169 181 179 161 171 175 176 167
141 169 301 37 171 190 108 110 116 129 160 165 246 271 245 223 212 201 205 192 168 156 148 137 137 145 135 126 127 130 140 141 153 166 161 159 168 164 162 165 180 181 175 174
145 132 230 260 259 181 153 163 150 156 212 180 180 264 297 240 209 185 184 177 164 148 135 127 118 98 92 103 117 125 135 145 161 158 154 170 171 155 162 183 188 175 176 183
132 115 87 336 333 6 132 156 154 135 128 159 179 259 323 17 93 156 161 160 156 136 123 115 112 108 96 89 87 92 96 121 135 142 149 156 162 171 176 186 190 174 168 171
116 122 167 199 215 206 210 190 158 136 157 194 218 246 295 320 295 211 172 161 146 137 132 125 125 117 108 97 92 90 80 82 124 144 158 180 197 193 181 165 164 167 163 163
108 155 204 229 233 194 221 221 193 186 185 188 222 228 257 251 229 216 177 152 138 135 137 142 142 131 119 113 94 78 60 46 78 121 149 211 222 197 147 142 156 164 172 177
92 155 173 271 239 179 273 277 224 222 199 202 211 254 259 238 207 163 162 155 157 160 158 157 146 135 139 138 131 118 91 38 78 106 108 356 110 114 126 141 148 149 150 161
119 133 134 240 272 16 267 255 221 215 220 192 210 235 225 174 189 186 176 172 174 174 165 163 166 163 165 170 157 160 150 139 143 126 87 58 73 106 214 171 156 176 195 202
149 131 137 161 133 222 242 268 188 175 234 218 221 234 194 186 184 177 173 173 176 179 170 164 162 160 155 146 143 138 124 121 121 104 91 64 54 333 324 200 221 217 208 216
159 144 131 137 184 258 287 275 196 181 254 260 224 226 152 115 75 353 294 175 182 182 170 169 171 165 152 151 148 126 116 114 109 139 222 245 228 233 236 239 242 234 220 235
84 109 124 148 179 227 245 269 248 134 265 260 206 197 184 128 146 259 276 112 123 134 123 122 125 130 137 150 135 124 130 135 174 240 266 263 237 221 230 236 239 230 213 232
71 85 145 180 213 255 266 291 103 171 239 259 200 199 176 178 208 239 106 94 113 105 97 103 109 122 145 147 136 140 157 204 238 244 260 279 271 252 244 231 228 223 223 226
167 157 180 167 200 251 300 100 172 216 239 187 190 181 158 151 143 109 112 113 101 85 79 89 100 104 110 136 144 157 198 214 214 217 262 283 293 286 286 219 234 225 191 202
183 187 186 189 212 250 289 229 254 216 212 228 185 175 148 139 136 117 122 121 105 96 92 86 108 102 88 146 156 179 228 205 193 182 278 299 301 309 300 257 238 222 195 208
294 70 149 250 273 285 298 316 311 278 239 232 176 159 147 151 152 140 133 120 108 88 100 90 107 111 352 287 155 199 232 190 157 173 295 317 310 316 316 298 261 222 225 232
239 113 76 269 280 314 318 308 302 359 36 69 100 155 161 149 146 145 142 144 145 104 71 100 128 156 214 260 273 245 213 155 150 167 245 294 302 289 307 301 267 254 240 224
224 191 192 231 237 225 267 295 302 45 271 174 137 123 147 150 149 142 148 155 150 155 141 140 159 177 246 260 267 266 215 170 169 188 233 248 288 293 289 306 312 287 257 257